ROMMA est une association bénévole à but non lucratif. Votre soutien est indispensable : ADHERER à ROMMA ou FAIRE un DON

Miribel-les-Echelles - (38, Isère)

Massif de la Chartreuse (760 m)   Longitude: 05° 41' 54'' E   Latitude: 45° 26' 40'' N Station romma n°22
 

Détail journalier du     <<     >>

Température Precipitation Humidité Pression Vent Dir Rafale Dir. rafale Ensol.
Heure (°C) (mm) (%) (hPa) (km/h) (km/h) (min)
01:00 8.6087101806O0
02:00 9.408510181N8NNE0
03:00 9.108710181SSE6SSE0
04:00 9.30851018010O0
05:00 8.8084101806ONO0
06:00 8.208410171O6O0
07:00 8.608410171O6O0
08:00 10.407910173SO15SO0
09:00 11.307610176SO16OSO0
10:00 13.007610173SSO19SO30
11:00 14.406810163S18S60
12:00 13.507410175SO19OSO30
13:00 14.707410164SSE18SO0
14:00 14.208010162E10SSO0
15:00 14.407710162ENE10E0
16:00 15.707410163E19OSO30
17:00 14.00.28410163OSO15OSO0
18:00 12.9087101606SO0
19:00 12.608510162SO11OSO0
20:00 13.707710173SO15OSO0
21:00 14.307410169SO19OSO0
22:00 13.607910177OSO19SO0
23:00 12.208810172E15SO0
minuit 11.4092101703E0

Graphique du 17-10-2019

 

Serveur OMMA